Wetterdaten: Mittwoch, 28.10.2015
Datum Zeit Temp. A. Feuchte A. Luftdruck Regen Wind Richtung Richtung Sonnenschein ET UV Solar Taupunkt Windchill Windben Empfang
28.10.2015 00:00 5,7 C 97 % 1015,6 hPa 0,0 l/m 0,4 km/h (0 Bft) O-NO 78 0 min 0,000 mm 0,0 UV-I 0 W/m 5,3 C 5,7 C 1,6 km/h (1 Bft) 99,11 %
28.10.2015 00:05 5,8 C 97 % 1015,5 hPa 0,0 l/m 0,0 km/h (0 Bft) O-NO 78 0 min 0,000 mm 0,0 UV-I 0 W/m 5,4 C 5,8 C 1,6 km/h (1 Bft) 98,31 %
28.10.2015 00:10 5,7 C 97 % 1015,5 hPa 0,0 l/m 0,1 km/h (0 Bft) O-NO 78 0 min 0,000 mm 0,0 UV-I 0 W/m 5,3 C 5,7 C 1,6 km/h (1 Bft) 100,00 %
28.10.2015 00:15 5,5 C 96 % 1015,4 hPa 0,0 l/m 0,0 km/h (0 Bft) O-NO 78 0 min 0,000 mm 0,0 UV-I 0 W/m 4,9 C 5,5 C 1,6 km/h (1 Bft) 99,19 %
28.10.2015 00:20 4,8 C 94 % 1015,5 hPa 0,0 l/m 0,8 km/h (0 Bft) S-SO 156 0 min 0,000 mm 0,0 UV-I 0 W/m 3,9 C 4,8 C 3,2 km/h (1 Bft) 98,17 %
28.10.2015 00:25 4,4 C 95 % 1015,5 hPa 0,0 l/m 0,6 km/h (0 Bft) S-SO 156 0 min 0,000 mm 0,0 UV-I 0 W/m 3,7 C 4,4 C 1,6 km/h (1 Bft) 100,00 %
28.10.2015 00:30 4,3 C 96 % 1015,6 hPa 0,0 l/m 0,3 km/h (0 Bft) S-SO 155 0 min 0,000 mm 0,0 UV-I 0 W/m 3,7 C 4,3 C 1,6 km/h (1 Bft) 98,20 %
28.10.2015 00:35 4,3 C 96 % 1015,6 hPa 0,0 l/m 0,5 km/h (0 Bft) S-SO 151 0 min 0,000 mm 0,0 UV-I 0 W/m 3,7 C 4,3 C 3,2 km/h (1 Bft) 98,35 %
28.10.2015 00:40 4,3 C 96 % 1015,5 hPa 0,0 l/m 0,8 km/h (0 Bft) S-SO 147 0 min 0,000 mm 0,0 UV-I 0 W/m 3,7 C 4,3 C 3,2 km/h (1 Bft) 100,00 %
28.10.2015 00:45 4,5 C 97 % 1015,6 hPa 0,0 l/m 0,0 km/h (0 Bft) S-SO 147 0 min 0,000 mm 0,0 UV-I 0 W/m 4,1 C 4,5 C 0,0 km/h (0 Bft) 99,10 %
28.10.2015 00:50 4,4 C 97 % 1015,5 hPa 0,0 l/m 1,0 km/h (0 Bft) S-SO 147 0 min 0,000 mm 0,0 UV-I 0 W/m 4,0 C 4,4 C 1,6 km/h (1 Bft) 100,00 %
28.10.2015 00:55 4,6 C 97 % 1015,4 hPa 0,0 l/m 0,0 km/h (0 Bft) S-SO 147 0 min 0,000 mm 0,0 UV-I 0 W/m 4,2 C 4,6 C 0,0 km/h (0 Bft) 97,32 %
28.10.2015 01:00 4,8 C 97 % 1015,5 hPa 0,0 l/m 0,0 km/h (0 Bft) S-SO 147 0 min 0,000 mm 0,0 UV-I 0 W/m 4,4 C 4,8 C 1,6 km/h (1 Bft) 100,00 %
28.10.2015 01:05 4,6 C 97 % 1015,5 hPa 0,0 l/m 0,0 km/h (0 Bft) S-SO 147 0 min 0,000 mm 0,0 UV-I 0 W/m 4,2 C 4,6 C 0,0 km/h (0 Bft) 99,15 %
28.10.2015 01:10 4,7 C 97 % 1015,5 hPa 0,0 l/m 0,0 km/h (0 Bft) S-SO 147 0 min 0,000 mm 0,0 UV-I 0 W/m 4,3 C 4,7 C 0,0 km/h (0 Bft) 100,00 %
28.10.2015 01:15 4,6 C 97 % 1015,4 hPa 0,0 l/m 0,5 km/h (0 Bft) S-SO 147 0 min 0,000 mm 0,0 UV-I 0 W/m 4,2 C 4,6 C 1,6 km/h (1 Bft) 98,39 %
28.10.2015 01:20 4,2 C 97 % 1015,4 hPa 0,0 l/m 0,4 km/h (0 Bft) S-SO 147 0 min 0,000 mm 0,0 UV-I 0 W/m 3,8 C 4,2 C 1,6 km/h (1 Bft) 99,11 %
28.10.2015 01:25 4,4 C 97 % 1015,4 hPa 0,0 l/m 0,0 km/h (0 Bft) S-SO 147 0 min 0,000 mm 0,0 UV-I 0 W/m 4,0 C 4,4 C 1,6 km/h (1 Bft) 96,75 %
28.10.2015 01:30 4,6 C 97 % 1015,4 hPa 0,0 l/m 0,2 km/h (0 Bft) S-SO 147 0 min 0,000 mm 0,0 UV-I 0 W/m 4,2 C 4,6 C 1,6 km/h (1 Bft) 100,00 %
28.10.2015 01:35 4,9 C 97 % 1015,3 hPa 0,0 l/m 0,7 km/h (0 Bft) O-SO 116 0 min 0,000 mm 0,0 UV-I 0 W/m 4,5 C 4,9 C 3,2 km/h (1 Bft) 96,61 %
28.10.2015 01:40 5,1 C 98 % 1015,3 hPa 0,0 l/m 0,4 km/h (0 Bft) O-SO 111 0 min 0,000 mm 0,0 UV-I 0 W/m 4,8 C 5,1 C 3,2 km/h (1 Bft) 100,00 %
28.10.2015 01:45 5,1 C 98 % 1015,3 hPa 0,0 l/m 0,2 km/h (0 Bft) O 100 0 min 0,000 mm 0,0 UV-I 0 W/m 4,8 C 5,1 C 3,2 km/h (1 Bft) 100,00 %
28.10.2015 01:50 5,1 C 98 % 1015,2 hPa 0,0 l/m 0,3 km/h (0 Bft) SO 124 0 min 0,000 mm 0,0 UV-I 0 W/m 4,8 C 5,1 C 1,6 km/h (1 Bft) 100,00 %
28.10.2015 01:55 5,2 C 97 % 1015,2 hPa 0,0 l/m 1,8 km/h (1 Bft) O-NO 69 0 min 0,000 mm 0,0 UV-I 0 W/m 4,8 C 5,2 C 6,4 km/h (2 Bft) 99,13 %
28.10.2015 02:00 5,3 C 98 % 1015,0 hPa 0,0 l/m 2,9 km/h (1 Bft) O-NO 74 0 min 0,000 mm 0,0 UV-I 0 W/m 5,0 C 5,3 C 6,4 km/h (2 Bft) 99,17 %
28.10.2015 02:05 5,3 C 97 % 1014,9 hPa 0,0 l/m 3,1 km/h (1 Bft) O 90 0 min 0,000 mm 0,0 UV-I 0 W/m 4,9 C 5,3 C 6,4 km/h (2 Bft) 99,12 %
28.10.2015 02:10 5,3 C 97 % 1014,9 hPa 0,0 l/m 1,0 km/h (0 Bft) O-NO 65 0 min 0,000 mm 0,0 UV-I 0 W/m 4,9 C 5,3 C 3,2 km/h (1 Bft) 99,19 %
28.10.2015 02:15 5,3 C 97 % 1014,8 hPa 0,0 l/m 1,6 km/h (1 Bft) O 94 0 min 0,000 mm 0,0 UV-I 0 W/m 4,9 C 5,3 C 6,4 km/h (2 Bft) 99,11 %
28.10.2015 02:20 5,3 C 97 % 1014,8 hPa 0,0 l/m 2,0 km/h (1 Bft) O-SO 116 0 min 0,000 mm 0,0 UV-I 0 W/m 4,9 C 5,3 C 4,8 km/h (1 Bft) 99,19 %
28.10.2015 02:25 5,3 C 97 % 1014,9 hPa 0,0 l/m 0,7 km/h (0 Bft) S-SO 153 0 min 0,000 mm 0,0 UV-I 0 W/m 4,9 C 5,3 C 3,2 km/h (1 Bft) 100,00 %
28.10.2015 02:30 5,0 C 96 % 1014,9 hPa 0,0 l/m 1,5 km/h (1 Bft) S-SO 159 0 min 0,000 mm 0,0 UV-I 0 W/m 4,4 C 5,0 C 3,2 km/h (1 Bft) 100,00 %
28.10.2015 02:35 4,9 C 97 % 1014,9 hPa 0,0 l/m 0,1 km/h (0 Bft) S-SO 159 0 min 0,000 mm 0,0 UV-I 0 W/m 4,5 C 4,9 C 1,6 km/h (1 Bft) 99,08 %
28.10.2015 02:40 5,0 C 97 % 1014,8 hPa 0,0 l/m 0,5 km/h (0 Bft) S-SO 159 0 min 0,000 mm 0,0 UV-I 0 W/m 4,6 C 5,0 C 1,6 km/h (1 Bft) 99,21 %
28.10.2015 02:45 5,1 C 97 % 1014,8 hPa 0,0 l/m 0,7 km/h (0 Bft) SO 125 0 min 0,000 mm 0,0 UV-I 0 W/m 4,7 C 5,1 C 3,2 km/h (1 Bft) 98,26 %
28.10.2015 02:50 5,1 C 97 % 1014,7 hPa 0,0 l/m 0,6 km/h (0 Bft) SO 125 0 min 0,000 mm 0,0 UV-I 0 W/m 4,7 C 5,1 C 1,6 km/h (1 Bft) 99,11 %
28.10.2015 02:55 4,9 C 97 % 1014,7 hPa 0,0 l/m 0,8 km/h (0 Bft) SO 125 0 min 0,000 mm 0,0 UV-I 0 W/m 4,5 C 4,9 C 3,2 km/h (1 Bft) 99,17 %
28.10.2015 03:00 4,7 C 97 % 1014,6 hPa 0,0 l/m 0,6 km/h (0 Bft) SO 125 0 min 0,000 mm 0,0 UV-I 0 W/m 4,3 C 4,7 C 1,6 km/h (1 Bft) 98,33 %
28.10.2015 03:05 4,8 C 97 % 1014,4 hPa 0,0 l/m 1,4 km/h (1 Bft) O 92 0 min 0,000 mm 0,0 UV-I 0 W/m 4,4 C 4,8 C 3,2 km/h (1 Bft) 99,13 %
28.10.2015 03:10 4,6 C 97 % 1014,5 hPa 0,0 l/m 0,2 km/h (0 Bft) O 83 0 min 0,000 mm 0,0 UV-I 0 W/m 4,2 C 4,6 C 1,6 km/h (1 Bft) 99,08 %
28.10.2015 03:15 4,9 C 97 % 1014,3 hPa 0,0 l/m 0,6 km/h (0 Bft) S-SO 157 0 min 0,000 mm 0,0 UV-I 0 W/m 4,5 C 4,9 C 3,2 km/h (1 Bft) 98,33 %
28.10.2015 03:20 5,1 C 98 % 1014,3 hPa 0,0 l/m 2,2 km/h (1 Bft) O 96 0 min 0,000 mm 0,0 UV-I 0 W/m 4,8 C 5,1 C 6,4 km/h (2 Bft) 99,17 %
28.10.2015 03:25 5,2 C 97 % 1014,3 hPa 0,0 l/m 1,7 km/h (1 Bft) O-SO 120 0 min 0,000 mm 0,0 UV-I 0 W/m 4,8 C 5,2 C 3,2 km/h (1 Bft) 99,12 %
28.10.2015 03:30 5,2 C 97 % 1014,3 hPa 0,0 l/m 1,9 km/h (1 Bft) S-SO 156 0 min 0,000 mm 0,0 UV-I 0 W/m 4,8 C 5,2 C 4,8 km/h (1 Bft) 99,19 %
28.10.2015 03:35 5,2 C 97 % 1014,2 hPa 0,0 l/m 1,4 km/h (1 Bft) O-SO 112 0 min 0,000 mm 0,0 UV-I 0 W/m 4,8 C 5,2 C 3,2 km/h (1 Bft) 98,21 %
28.10.2015 03:40 5,3 C 97 % 1014,5 hPa 0,0 l/m 2,5 km/h (1 Bft) S 170 0 min 0,000 mm 0,0 UV-I 0 W/m 4,9 C 5,3 C 6,4 km/h (2 Bft) 98,20 %
28.10.2015 03:45 5,3 C 97 % 1014,4 hPa 0,0 l/m 0,9 km/h (0 Bft) O-SO 119 0 min 0,000 mm 0,0 UV-I 0 W/m 4,9 C 5,3 C 3,2 km/h (1 Bft) 100,00 %
28.10.2015 03:50 5,3 C 97 % 1014,4 hPa 0,0 l/m 1,2 km/h (1 Bft) O 92 0 min 0,000 mm 0,0 UV-I 0 W/m 4,9 C 5,3 C 4,8 km/h (1 Bft) 100,00 %
28.10.2015 03:55 5,3 C 97 % 1014,4 hPa 0,0 l/m 1,1 km/h (1 Bft) SO 132 0 min 0,000 mm 0,0 UV-I 0 W/m 4,9 C 5,3 C 3,2 km/h (1 Bft) 100,00 %
28.10.2015 04:00 5,2 C 97 % 1014,3 hPa 0,0 l/m 0,5 km/h (0 Bft) O-SO 115 0 min 0,000 mm 0,0 UV-I 0 W/m 4,8 C 5,2 C 4,8 km/h (1 Bft) 100,00 %
28.10.2015 04:05 5,4 C 97 % 1014,2 hPa 0,0 l/m 2,3 km/h (1 Bft) O-NO 76 0 min 0,000 mm 0,0 UV-I 0 W/m 5,0 C 5,4 C 4,8 km/h (1 Bft) 100,00 %
28.10.2015 04:10 5,3 C 97 % 1014,2 hPa 0,0 l/m 2,2 km/h (1 Bft) O-NO 71 0 min 0,000 mm 0,0 UV-I 0 W/m 4,9 C 5,3 C 4,8 km/h (1 Bft) 98,43 %
28.10.2015 04:15 5,1 C 96 % 1014,3 hPa 0,0 l/m 0,6 km/h (0 Bft) O-NO 71 0 min 0,000 mm 0,0 UV-I 0 W/m 4,5 C 5,1 C 3,2 km/h (1 Bft) 100,00 %
28.10.2015 04:20 4,8 C 96 % 1014,2 hPa 0,0 l/m 0,3 km/h (0 Bft) O-NO 71 0 min 0,000 mm 0,0 UV-I 0 W/m 4,2 C 4,8 C 1,6 km/h (1 Bft) 100,00 %
28.10.2015 04:25 4,8 C 97 % 1014,2 hPa 0,0 l/m 0,0 km/h (0 Bft) O-NO 71 0 min 0,000 mm 0,0 UV-I 0 W/m 4,4 C 4,8 C 0,0 km/h (0 Bft) 98,35 %
28.10.2015 04:30 4,9 C 97 % 1014,1 hPa 0,0 l/m 0,7 km/h (0 Bft) O-NO 71 0 min 0,000 mm 0,0 UV-I 0 W/m 4,5 C 4,9 C 3,2 km/h (1 Bft) 98,29 %
28.10.2015 04:35 4,9 C 97 % 1014,1 hPa 0,0 l/m 1,0 km/h (0 Bft) O-NO 66 0 min 0,000 mm 0,0 UV-I 0 W/m 4,5 C 4,9 C 3,2 km/h (1 Bft) 98,21 %
28.10.2015 04:40 4,5 C 96 % 1014,1 hPa 0,0 l/m 0,3 km/h (0 Bft) O-NO 66 0 min 0,000 mm 0,0 UV-I 0 W/m 3,9 C 4,5 C 1,6 km/h (1 Bft) 98,39 %
28.10.2015 04:45 4,1 C 96 % 1014,1 hPa 0,0 l/m 0,3 km/h (0 Bft) O-NO 65 0 min 0,000 mm 0,0 UV-I 0 W/m 3,5 C 4,1 C 1,6 km/h (1 Bft) 97,50 %
28.10.2015 04:50 3,8 C 97 % 1014,1 hPa 0,0 l/m 0,3 km/h (0 Bft) O-NO 65 0 min 0,000 mm 0,0 UV-I 0 W/m 3,4 C 3,8 C 1,6 km/h (1 Bft) 100,00 %
28.10.2015 04:55 3,6 C 97 % 1014,1 hPa 0,0 l/m 0,6 km/h (0 Bft) O-NO 71 0 min 0,000 mm 0,0 UV-I 0 W/m 3,2 C 3,6 C 1,6 km/h (1 Bft) 99,11 %
28.10.2015 05:00 3,3 C 97 % 1014,1 hPa 0,0 l/m 0,4 km/h (0 Bft) O-NO 71 0 min 0,000 mm 0,0 UV-I 0 W/m 2,9 C 3,3 C 1,6 km/h (1 Bft) 98,37 %
28.10.2015 05:05 3,1 C 97 % 1014,1 hPa 0,0 l/m 0,9 km/h (0 Bft) O-NO 71 0 min 0,000 mm 0,0 UV-I 0 W/m 2,7 C 3,1 C 3,2 km/h (1 Bft) 97,32 %
28.10.2015 05:10 2,9 C 97 % 1014,1 hPa 0,0 l/m 0,0 km/h (0 Bft) O-NO 71 0 min 0,000 mm 0,0 UV-I 0 W/m 2,5 C 2,9 C 1,6 km/h (1 Bft) 98,17 %
28.10.2015 05:15 3,1 C 98 % 1014,1 hPa 0,0 l/m 0,0 km/h (0 Bft) O-NO 71 0 min 0,000 mm 0,0 UV-I 0 W/m 2,8 C 3,1 C 1,6 km/h (1 Bft) 99,24 %
28.10.2015 05:20 3,1 C 98 % 1014,1 hPa 0,0 l/m 0,0 km/h (0 Bft) O-NO 71 0 min 0,000 mm 0,0 UV-I 0 W/m 2,8 C 3,1 C 0,0 km/h (0 Bft) 99,11 %
28.10.2015 05:25 3,0 C 97 % 1014,1 hPa 0,0 l/m 0,0 km/h (0 Bft) O-NO 71 0 min 0,000 mm 0,0 UV-I 0 W/m 2,6 C 3,0 C 0,0 km/h (0 Bft) 98,33 %
28.10.2015 05:30 2,9 C 98 % 1014,2 hPa 0,0 l/m 0,0 km/h (0 Bft) O-NO 71 0 min 0,000 mm 0,0 UV-I 0 W/m 2,6 C 2,9 C 0,0 km/h (0 Bft) 100,00 %
28.10.2015 05:35 3,2 C 98 % 1014,2 hPa 0,0 l/m 0,0 km/h (0 Bft) O-NO 71 0 min 0,000 mm 0,0 UV-I 0 W/m 2,9 C 3,2 C 1,6 km/h (1 Bft) 99,21 %
28.10.2015 05:40 3,6 C 98 % 1014,1 hPa 0,0 l/m 0,2 km/h (0 Bft) O-NO 71 0 min 0,000 mm 0,0 UV-I 0 W/m 3,3 C 3,6 C 3,2 km/h (1 Bft) 100,00 %
28.10.2015 05:45 3,9 C 98 % 1014,1 hPa 0,0 l/m 1,1 km/h (1 Bft) O 95 0 min 0,000 mm 0,0 UV-I 0 W/m 3,6 C 3,9 C 3,2 km/h (1 Bft) 99,19 %
28.10.2015 05:50 4,1 C 98 % 1014,2 hPa 0,0 l/m 1,4 km/h (1 Bft) O 82 0 min 0,000 mm 0,0 UV-I 0 W/m 3,8 C 4,1 C 3,2 km/h (1 Bft) 99,12 %
28.10.2015 05:55 4,3 C 98 % 1014,1 hPa 0,0 l/m 4,7 km/h (1 Bft) O 85 0 min 0,000 mm 0,0 UV-I 0 W/m 4,0 C 4,3 C 14,5 km/h (3 Bft) 100,00 %
28.10.2015 06:00 4,5 C 98 % 1014,1 hPa 0,0 l/m 5,3 km/h (1 Bft) O-NO 67 0 min 0,000 mm 0,0 UV-I 0 W/m 4,2 C 4,5 C 9,7 km/h (2 Bft) 100,00 %
28.10.2015 06:05 4,6 C 98 % 1014,2 hPa 0,0 l/m 3,9 km/h (1 Bft) O-SO 106 0 min 0,000 mm 0,0 UV-I 0 W/m 4,3 C 4,6 C 8,0 km/h (2 Bft) 98,29 %
28.10.2015 06:10 4,7 C 98 % 1014,3 hPa 0,0 l/m 4,3 km/h (1 Bft) O-NO 76 0 min 0,000 mm 0,0 UV-I 0 W/m 4,4 C 4,7 C 8,0 km/h (2 Bft) 99,19 %
28.10.2015 06:15 4,7 C 98 % 1014,3 hPa 0,0 l/m 4,3 km/h (1 Bft) O-NO 67 0 min 0,000 mm 0,0 UV-I 0 W/m 4,4 C 4,7 C 6,4 km/h (2 Bft) 99,11 %
28.10.2015 06:20 4,7 C 98 % 1014,2 hPa 0,0 l/m 3,6 km/h (1 Bft) O-NO 57 0 min 0,000 mm 0,0 UV-I 0 W/m 4,4 C 4,7 C 6,4 km/h (2 Bft) 97,56 %
28.10.2015 06:25 4,7 C 98 % 1014,2 hPa 0,0 l/m 3,9 km/h (1 Bft) O-NO 57 0 min 0,000 mm 0,0 UV-I 0 W/m 4,4 C 4,7 C 6,4 km/h (2 Bft) 99,11 %
28.10.2015 06:30 4,8 C 98 % 1014,2 hPa 0,0 l/m 3,0 km/h (1 Bft) O-NO 71 0 min 0,000 mm 0,0 UV-I 0 W/m 4,5 C 4,8 C 6,4 km/h (2 Bft) 99,11 %
28.10.2015 06:35 4,7 C 98 % 1014,3 hPa 0,0 l/m 3,8 km/h (1 Bft) O 96 0 min 0,000 mm 0,0 UV-I 0 W/m 4,4 C 4,7 C 8,0 km/h (2 Bft) 98,45 %
28.10.2015 06:40 4,7 C 98 % 1014,3 hPa 0,0 l/m 5,0 km/h (1 Bft) O-NO 59 0 min 0,000 mm 0,0 UV-I 0 W/m 4,4 C 4,7 C 9,7 km/h (2 Bft) 100,00 %
28.10.2015 06:45 4,7 C 98 % 1014,4 hPa 0,0 l/m 5,0 km/h (1 Bft) O 82 0 min 0,000 mm 0,0 UV-I 0 W/m 4,4 C 4,7 C 9,7 km/h (2 Bft) 100,00 %
28.10.2015 06:50 4,7 C 98 % 1014,3 hPa 0,0 l/m 5,5 km/h (1 Bft) NO 55 0 min 0,000 mm 0,0 UV-I 2 W/m 4,4 C 4,7 C 11,3 km/h (2 Bft) 100,00 %
28.10.2015 06:55 4,7 C 98 % 1014,2 hPa 0,0 l/m 5,6 km/h (1 Bft) O-NO 74 0 min 0,000 mm 0,0 UV-I 5 W/m 4,4 C 4,7 C 9,7 km/h (2 Bft) 98,39 %
28.10.2015 07:00 4,7 C 98 % 1014,2 hPa 0,0 l/m 5,6 km/h (1 Bft) O-NO 74 0 min 0,000 mm 0,0 UV-I 5 W/m 4,4 C 4,7 C 11,3 km/h (2 Bft) 100,00 %
28.10.2015 07:05 4,8 C 98 % 1014,2 hPa 0,0 l/m 5,4 km/h (1 Bft) NO 34 0 min 0,000 mm 0,0 UV-I 7 W/m 4,5 C 4,8 C 11,3 km/h (2 Bft) 99,21 %
28.10.2015 07:10 4,9 C 98 % 1014,2 hPa 0,0 l/m 4,2 km/h (1 Bft) O-NO 74 0 min 0,000 mm 0,0 UV-I 9 W/m 4,6 C 4,9 C 11,3 km/h (2 Bft) 97,32 %
28.10.2015 07:15 4,9 C 98 % 1014,2 hPa 0,0 l/m 6,8 km/h (2 Bft) O-NO 57 0 min 0,000 mm 0,0 UV-I 11 W/m 4,6 C 4,6 C 12,9 km/h (3 Bft) 100,00 %
28.10.2015 07:20 5,0 C 98 % 1014,3 hPa 0,0 l/m 6,9 km/h (2 Bft) O 94 0 min 0,000 mm 0,0 UV-I 12 W/m 4,7 C 4,6 C 12,9 km/h (3 Bft) 100,00 %
28.10.2015 07:25 5,1 C 98 % 1014,3 hPa 0,0 l/m 7,2 km/h (2 Bft) O 94 0 min 0,000 mm 0,0 UV-I 13 W/m 4,8 C 4,4 C 14,5 km/h (3 Bft) 98,37 %
28.10.2015 07:30 5,1 C 98 % 1014,4 hPa 0,0 l/m 6,1 km/h (2 Bft) O-SO 105 0 min 0,000 mm 0,0 UV-I 19 W/m 4,8 C 5,1 C 14,5 km/h (3 Bft) 100,00 %
28.10.2015 07:35 5,2 C 98 % 1014,5 hPa 0,0 l/m 3,1 km/h (1 Bft) NO 44 0 min 0,000 mm 0,0 UV-I 19 W/m 4,9 C 5,2 C 6,4 km/h (2 Bft) 99,13 %
28.10.2015 07:40 5,3 C 98 % 1014,5 hPa 0,0 l/m 5,2 km/h (1 Bft) O-SO 107 0 min 0,000 mm 0,0 UV-I 23 W/m 5,0 C 5,3 C 12,9 km/h (3 Bft) 100,00 %
28.10.2015 07:45 5,3 C 98 % 1014,5 hPa 0,0 l/m 5,7 km/h (1 Bft) NO 56 0 min 0,000 mm 0,0 UV-I 24 W/m 5,0 C 5,3 C 12,9 km/h (3 Bft) 100,00 %
28.10.2015 07:50 5,3 C 98 % 1014,4 hPa 0,0 l/m 6,7 km/h (2 Bft) O-NO 78 0 min 0,000 mm 0,0 UV-I 29 W/m 5,0 C 5,1 C 11,3 km/h (2 Bft) 100,00 %
28.10.2015 07:55 5,4 C 98 % 1014,4 hPa 0,0 l/m 4,8 km/h (1 Bft) O-SO 103 5 min 0,000 mm 0,0 UV-I 28 W/m 5,1 C 5,4 C 11,3 km/h (2 Bft) 100,00 %
28.10.2015 08:00 5,4 C 98 % 1014,4 hPa 0,0 l/m 6,5 km/h (2 Bft) O-SO 107 5 min 0,000 mm 0,0 UV-I 27 W/m 5,1 C 5,3 C 12,9 km/h (3 Bft) 100,00 %
28.10.2015 08:05 5,6 C 98 % 1014,4 hPa 0,0 l/m 5,7 km/h (1 Bft) O-NO 67 5 min 0,000 mm 0,0 UV-I 39 W/m 5,3 C 5,6 C 12,9 km/h (3 Bft) 99,15 %
28.10.2015 08:10 5,6 C 98 % 1014,4 hPa 0,0 l/m 6,8 km/h (2 Bft) O 86 5 min 0,000 mm 0,0 UV-I 39 W/m 5,3 C 5,3 C 12,9 km/h (3 Bft) 100,00 %
28.10.2015 08:15 5,6 C 98 % 1014,3 hPa 0,0 l/m 7,3 km/h (2 Bft) O 82 5 min 0,000 mm 0,0 UV-I 43 W/m 5,3 C 4,8 C 16,1 km/h (3 Bft) 100,00 %
28.10.2015 08:20 5,6 C 98 % 1014,4 hPa 0,0 l/m 6,8 km/h (2 Bft) O 95 0 min 0,000 mm 0,0 UV-I 38 W/m 5,3 C 5,3 C 14,5 km/h (3 Bft) 98,29 %
28.10.2015 08:25 5,7 C 98 % 1014,4 hPa 0,0 l/m 5,0 km/h (1 Bft) O 85 0 min 0,000 mm 0,0 UV-I 47 W/m 5,4 C 5,7 C 12,9 km/h (3 Bft) 99,19 %
28.10.2015 08:30 5,7 C 98 % 1014,4 hPa 0,0 l/m 8,9 km/h (2 Bft) O 95 0 min 0,000 mm 0,0 UV-I 56 W/m 5,4 C 3,6 C 17,7 km/h (3 Bft) 100,00 %
28.10.2015 08:35 5,7 C 98 % 1014,4 hPa 0,0 l/m 7,6 km/h (2 Bft) SO 137 0 min 0,000 mm 0,0 UV-I 61 W/m 5,4 C 4,7 C 17,7 km/h (3 Bft) 99,13 %
28.10.2015 08:40 5,7 C 98 % 1014,4 hPa 0,0 l/m 7,1 km/h (2 Bft) O-NO 59 0 min 0,000 mm 0,0 UV-I 60 W/m 5,4 C 5,1 C 12,9 km/h (3 Bft) 100,00 %
28.10.2015 08:45 5,7 C 98 % 1014,4 hPa 0,0 l/m 7,7 km/h (2 Bft) O-NO 71 0 min 0,000 mm 0,0 UV-I 57 W/m 5,4 C 4,6 C 14,5 km/h (3 Bft) 98,00 %
28.10.2015 08:50 5,8 C 98 % 1014,4 hPa 0,0 l/m 5,9 km/h (2 Bft) O-SO 105 0 min 0,000 mm 0,0 UV-I 62 W/m 5,5 C 5,8 C 12,9 km/h (3 Bft) 98,41 %
28.10.2015 08:55 5,9 C 98 % 1014,4 hPa 0,0 l/m 5,0 km/h (1 Bft) O 90 0 min 0,000 mm 0,0 UV-I 54 W/m 5,6 C 5,9 C 11,3 km/h (2 Bft) 99,19 %
28.10.2015 09:00 5,9 C 98 % 1014,3 hPa 0,0 l/m 5,5 km/h (1 Bft) O 84 0 min 0,025 mm 0,0 UV-I 56 W/m 5,6 C 5,9 C 11,3 km/h (2 Bft) 99,15 %
28.10.2015 09:05 5,9 C 98 % 1014,3 hPa 0,0 l/m 5,1 km/h (1 Bft) O-NO 78 0 min 0,000 mm 0,0 UV-I 61 W/m 5,6 C 5,9 C 12,9 km/h (3 Bft) 99,17 %
28.10.2015 09:10 5,9 C 98 % 1014,2 hPa 0,0 l/m 4,8 km/h (1 Bft) O 81 0 min 0,000 mm 0,0 UV-I 59 W/m 5,6 C 5,9 C 9,7 km/h (2 Bft) 100,00 %
28.10.2015 09:15 5,9 C 98 % 1014,2 hPa 0,0 l/m 6,1 km/h (2 Bft) O-SO 107 0 min 0,000 mm 0,0 UV-I 64 W/m 5,6 C 5,9 C 12,9 km/h (3 Bft) 100,00 %
28.10.2015 09:20 6,0 C 98 % 1014,2 hPa 0,0 l/m 4,9 km/h (1 Bft) O-NO 78 0 min 0,000 mm 0,0 UV-I 67 W/m 5,7 C 6,0 C 12,9 km/h (3 Bft) 99,11 %
28.10.2015 09:25 6,0 C 98 % 1014,1 hPa 0,0 l/m 7,5 km/h (2 Bft) O-NO 71 0 min 0,000 mm 0,0 UV-I 76 W/m 5,7 C 5,1 C 12,9 km/h (3 Bft) 100,00 %
28.10.2015 09:30 6,1 C 98 % 1014,2 hPa 0,0 l/m 6,1 km/h (2 Bft) O-NO 78 0 min 0,000 mm 0,0 UV-I 81 W/m 5,8 C 6,1 C 11,3 km/h (2 Bft) 100,00 %
28.10.2015 09:35 6,1 C 97 % 1014,1 hPa 0,0 l/m 7,1 km/h (2 Bft) O-NO 74 0 min 0,000 mm 0,0 UV-I 89 W/m 5,7 C 5,5 C 12,9 km/h (3 Bft) 100,00 %
28.10.2015 09:40 6,2 C 97 % 1014,1 hPa 0,0 l/m 7,0 km/h (2 Bft) O-SO 111 0 min 0,000 mm 0,0 UV-I 90 W/m 5,8 C 5,7 C 14,5 km/h (3 Bft) 99,19 %
28.10.2015 09:45 6,2 C 97 % 1014,1 hPa 0,0 l/m 5,3 km/h (1 Bft) O-NO 74 0 min 0,000 mm 0,0 UV-I 96 W/m 5,8 C 6,2 C 14,5 km/h (3 Bft) 100,00 %
28.10.2015 09:50 6,3 C 97 % 1014,1 hPa 0,0 l/m 5,5 km/h (1 Bft) O 85 0 min 0,000 mm 0,0 UV-I 95 W/m 5,9 C 6,3 C 11,3 km/h (2 Bft) 100,00 %
28.10.2015 09:55 6,3 C 96 % 1014,0 hPa 0,0 l/m 6,6 km/h (2 Bft) O 84 0 min 0,000 mm 0,5 UV-I 106 W/m 5,7 C 6,2 C 14,5 km/h (3 Bft) 99,22 %
28.10.2015 10:00 6,3 C 96 % 1013,9 hPa 0,0 l/m 6,4 km/h (2 Bft) O-NO 76 0 min 0,026 mm 0,5 UV-I 103 W/m 5,7 C 6,3 C 16,1 km/h (3 Bft) 100,00 %
28.10.2015 10:05 6,4 C 96 % 1013,9 hPa 0,0 l/m 6,8 km/h (2 Bft) O-SO 115 0 min 0,000 mm 0,5 UV-I 109 W/m 5,8 C 6,1 C 12,9 km/h (3 Bft) 100,00 %
28.10.2015 10:10 6,4 C 96 % 1013,9 hPa 0,0 l/m 6,8 km/h (2 Bft) O 86 0 min 0,000 mm 0,6 UV-I 117 W/m 5,8 C 6,1 C 14,5 km/h (3 Bft) 98,21 %
28.10.2015 10:15 6,6 C 96 % 1013,9 hPa 0,0 l/m 6,6 km/h (2 Bft) O 84 0 min 0,000 mm 0,6 UV-I 121 W/m 6,0 C 6,5 C 12,9 km/h (3 Bft) 99,19 %
28.10.2015 10:20 6,6 C 96 % 1013,8 hPa 0,0 l/m 7,1 km/h (2 Bft) O 101 0 min 0,000 mm 0,6 UV-I 119 W/m 6,0 C 6,0 C 14,5 km/h (3 Bft) 99,12 %
28.10.2015 10:25 6,7 C 96 % 1013,8 hPa 0,0 l/m 6,7 km/h (2 Bft) O-SO 104 0 min 0,000 mm 0,6 UV-I 119 W/m 6,1 C 6,5 C 12,9 km/h (3 Bft) 100,00 %
28.10.2015 10:30 6,7 C 95 % 1014,0 hPa 0,0 l/m 6,3 km/h (2 Bft) O 92 0 min 0,000 mm 0,6 UV-I 124 W/m 6,0 C 6,7 C 12,9 km/h (3 Bft) 100,00 %
28.10.2015 10:35 6,7 C 95 % 1013,9 hPa 0,0 l/m 6,1 km/h (2 Bft) NO 49 0 min 0,000 mm 0,6 UV-I 127 W/m 6,0 C 6,7 C 11,3 km/h (2 Bft) 100,00 %
28.10.2015 10:40 6,8 C 95 % 1013,9 hPa 0,0 l/m 5,6 km/h (1 Bft) O 86 0 min 0,000 mm 0,7 UV-I 136 W/m 6,1 C 6,8 C 12,9 km/h (3 Bft) 100,00 %
28.10.2015 10:45 6,9 C 95 % 1013,9 hPa 0,0 l/m 4,5 km/h (1 Bft) O-NO 65 0 min 0,000 mm 0,8 UV-I 153 W/m 6,2 C 6,9 C 11,3 km/h (2 Bft) 99,19 %
28.10.2015 10:50 6,9 C 95 % 1013,8 hPa 0,0 l/m 6,1 km/h (2 Bft) O-SO 103 0 min 0,000 mm 0,8 UV-I 160 W/m 6,2 C 6,9 C 11,3 km/h (2 Bft) 99,11 %
28.10.2015 10:55 7,0 C 94 % 1013,8 hPa 0,0 l/m 5,9 km/h (2 Bft) O-NO 77 0 min 0,000 mm 0,8 UV-I 160 W/m 6,1 C 7,0 C 11,3 km/h (2 Bft) 99,19 %
28.10.2015 11:00 7,2 C 93 % 1013,7 hPa 0,0 l/m 6,7 km/h (2 Bft) O-NO 59 0 min 0,051 mm 1,0 UV-I 191 W/m 6,1 C 7,0 C 12,9 km/h (3 Bft) 100,00 %
28.10.2015 11:05 7,3 C 95 % 1013,7 hPa 0,0 l/m 4,8 km/h (1 Bft) O 100 0 min 0,000 mm 0,9 UV-I 188 W/m 6,6 C 7,3 C 9,7 km/h (2 Bft) 97,39 %
28.10.2015 11:10 7,3 C 93 % 1013,6 hPa 0,0 l/m 7,4 km/h (2 Bft) O-SO 123 0 min 0,000 mm 1,1 UV-I 195 W/m 6,2 C 6,5 C 12,9 km/h (3 Bft) 99,11 %
28.10.2015 11:15 7,4 C 94 % 1013,5 hPa 0,0 l/m 5,4 km/h (1 Bft) O-SO 121 0 min 0,000 mm 0,9 UV-I 199 W/m 6,5 C 7,4 C 11,3 km/h (2 Bft) 100,00 %
28.10.2015 11:20 7,4 C 93 % 1013,4 hPa 0,0 l/m 5,2 km/h (1 Bft) O 87 0 min 0,000 mm 1,0 UV-I 197 W/m 6,3 C 7,4 C 11,3 km/h (2 Bft) 98,26 %
28.10.2015 11:25 7,4 C 93 % 1013,4 hPa 0,0 l/m 7,2 km/h (2 Bft) O-SO 105 0 min 0,000 mm 1,1 UV-I 181 W/m 6,3 C 6,8 C 12,9 km/h (3 Bft) 99,08 %
28.10.2015 11:30 7,7 C 94 % 1013,5 hPa 0,0 l/m 3,6 km/h (1 Bft) NO 53 0 min 0,000 mm 1,1 UV-I 235 W/m 6,8 C 7,7 C 6,4 km/h (2 Bft) 99,19 %
28.10.2015 11:35 7,7 C 92 % 1013,4 hPa 0,0 l/m 5,6 km/h (1 Bft) O 94 0 min 0,000 mm 0,9 UV-I 165 W/m 6,5 C 7,7 C 11,3 km/h (2 Bft) 99,11 %
28.10.2015 11:40 7,6 C 92 % 1013,4 hPa 0,0 l/m 5,9 km/h (2 Bft) O-NO 62 0 min 0,000 mm 1,2 UV-I 181 W/m 6,4 C 7,6 C 12,9 km/h (3 Bft) 98,29 %
28.10.2015 11:45 7,7 C 92 % 1013,4 hPa 0,0 l/m 6,3 km/h (2 Bft) O-NO 71 0 min 0,000 mm 1,3 UV-I 218 W/m 6,5 C 7,7 C 11,3 km/h (2 Bft) 99,21 %
28.10.2015 11:50 8,2 C 93 % 1013,3 hPa 0,0 l/m 3,0 km/h (1 Bft) N-NO 23 5 min 0,000 mm 1,5 UV-I 373 W/m 7,1 C 8,2 C 6,4 km/h (2 Bft) 99,11 %
28.10.2015 11:55 8,2 C 92 % 1013,2 hPa 0,0 l/m 2,9 km/h (1 Bft) NO 40 5 min 0,000 mm 1,2 UV-I 295 W/m 7,0 C 8,2 C 8,0 km/h (2 Bft) 99,12 %
28.10.2015 12:00 8,2 C 92 % 1013,2 hPa 0,0 l/m 2,2 km/h (1 Bft) O 85 0 min 0,101 mm 1,3 UV-I 217 W/m 7,0 C 8,2 C 6,4 km/h (2 Bft) 100,00 %
28.10.2015 12:05 8,2 C 91 % 1013,2 hPa 0,0 l/m 3,4 km/h (1 Bft) O 99 0 min 0,000 mm 1,4 UV-I 206 W/m 6,8 C 8,2 C 6,4 km/h (2 Bft) 100,00 %
28.10.2015 12:10 8,4 C 92 % 1013,1 hPa 0,0 l/m 2,9 km/h (1 Bft) O-NO 71 5 min 0,000 mm 1,5 UV-I 309 W/m 7,2 C 8,4 C 6,4 km/h (2 Bft) 100,00 %
28.10.2015 12:15 8,9 C 92 % 1013,0 hPa 0,0 l/m 2,1 km/h (1 Bft) NO 34 5 min 0,000 mm 1,6 UV-I 438 W/m 7,7 C 8,9 C 6,4 km/h (2 Bft) 100,00 %
28.10.2015 12:20 9,1 C 90 % 1012,9 hPa 0,0 l/m 3,1 km/h (1 Bft) O-NO 68 5 min 0,000 mm 1,5 UV-I 391 W/m 7,5 C 9,1 C 9,7 km/h (2 Bft) 97,62 %
28.10.2015 12:25 9,0 C 90 % 1012,9 hPa 0,0 l/m 5,2 km/h (1 Bft) O-NO 67 5 min 0,000 mm 1,5 UV-I 352 W/m 7,4 C 9,0 C 11,3 km/h (2 Bft) 100,00 %
28.10.2015 12:30 9,2 C 90 % 1012,7 hPa 0,0 l/m 4,7 km/h (1 Bft) O-NO 72 5 min 0,000 mm 1,5 UV-I 315 W/m 7,6 C 9,2 C 9,7 km/h (2 Bft) 99,13 %
28.10.2015 12:35 9,5 C 89 % 1012,6 hPa 0,0 l/m 3,2 km/h (1 Bft) O-SO 111 5 min 0,000 mm 1,5 UV-I 431 W/m 7,8 C 9,5 C 6,4 km/h (2 Bft) 100,00 %
28.10.2015 12:40 9,6 C 89 % 1012,5 hPa 0,0 l/m 4,6 km/h (1 Bft) NO 49 5 min 0,000 mm 1,5 UV-I 433 W/m 7,9 C 9,6 C 12,9 km/h (3 Bft) 100,00 %
28.10.2015 12:45 9,5 C 90 % 1012,6 hPa 0,0 l/m 4,1 km/h (1 Bft) NO 44 0 min 0,000 mm 1,4 UV-I 252 W/m 7,9 C 9,5 C 11,3 km/h (2 Bft) 100,00 %
28.10.2015 12:50 9,8 C 90 % 1012,5 hPa 0,0 l/m 2,1 km/h (1 Bft) O 96 5 min 0,000 mm 1,5 UV-I 349 W/m 8,2 C 9,8 C 4,8 km/h (1 Bft) 100,00 %
28.10.2015 12:55 10,0 C 89 % 1012,3 hPa 0,0 l/m 4,1 km/h (1 Bft) N-NO 32 5 min 0,000 mm 1,5 UV-I 407 W/m 8,3 C 10,0 C 11,3 km/h (2 Bft) 100,00 %
28.10.2015 13:00 10,2 C 90 % 1012,3 hPa 0,0 l/m 2,9 km/h (1 Bft) N-NO 26 5 min 0,153 mm 1,4 UV-I 380 W/m 8,6 C 10,2 C 6,4 km/h (2 Bft) 99,10 %
28.10.2015 13:05 10,2 C 87 % 1012,3 hPa 0,0 l/m 4,4 km/h (1 Bft) O 82 5 min 0,000 mm 1,3 UV-I 329 W/m 8,1 C 10,2 C 11,3 km/h (2 Bft) 99,15 %
28.10.2015 13:10 10,2 C 88 % 1012,3 hPa 0,0 l/m 3,6 km/h (1 Bft) O 82 5 min 0,000 mm 1,3 UV-I 285 W/m 8,3 C 10,2 C 6,4 km/h (2 Bft) 99,11 %
28.10.2015 13:15 10,4 C 88 % 1012,2 hPa 0,0 l/m 3,0 km/h (1 Bft) O 95 5 min 0,000 mm 1,3 UV-I 330 W/m 8,5 C 10,4 C 6,4 km/h (2 Bft) 97,62 %
28.10.2015 13:20 10,6 C 87 % 1012,2 hPa 0,0 l/m 5,5 km/h (1 Bft) O 94 5 min 0,000 mm 1,3 UV-I 386 W/m 8,5 C 10,6 C 9,7 km/h (2 Bft) 100,00 %
28.10.2015 13:25 10,8 C 87 % 1012,2 hPa 0,0 l/m 4,9 km/h (1 Bft) O 90 5 min 0,000 mm 1,3 UV-I 394 W/m 8,7 C 10,8 C 11,3 km/h (2 Bft) 99,11 %
28.10.2015 13:30 11,1 C 88 % 1012,2 hPa 0,0 l/m 3,2 km/h (1 Bft) O-NO 76 5 min 0,000 mm 1,3 UV-I 383 W/m 9,2 C 11,1 C 9,7 km/h (2 Bft) 100,00 %
28.10.2015 13:35 11,1 C 86 % 1012,0 hPa 0,0 l/m 4,9 km/h (1 Bft) O-NO 68 5 min 0,000 mm 1,2 UV-I 376 W/m 8,8 C 11,1 C 9,7 km/h (2 Bft) 99,19 %
28.10.2015 13:40 11,2 C 86 % 1012,0 hPa 0,0 l/m 3,4 km/h (1 Bft) O 97 5 min 0,000 mm 1,2 UV-I 369 W/m 8,9 C 11,2 C 6,4 km/h (2 Bft) 99,12 %
28.10.2015 13:45 11,2 C 85 % 1012,0 hPa 0,0 l/m 3,8 km/h (1 Bft) O-NO 59 5 min 0,000 mm 1,1 UV-I 360 W/m 8,8 C 11,2 C 9,7 km/h (2 Bft) 100,00 %
28.10.2015 13:50 11,3 C 85 % 1012,0 hPa 0,0 l/m 3,3 km/h (1 Bft) O-NO 69 5 min 0,000 mm 1,1 UV-I 351 W/m 8,9 C 11,3 C 8,0 km/h (2 Bft) 98,39 %
28.10.2015 13:55 11,4 C 85 % 1012,0 hPa 0,0 l/m 3,1 km/h (1 Bft) O-SO 117 5 min 0,000 mm 1,0 UV-I 343 W/m 9,0 C 11,4 C 9,7 km/h (2 Bft) 99,15 %
28.10.2015 14:00 11,4 C 85 % 1012,0 hPa 0,0 l/m 3,6 km/h (1 Bft) O 100 5 min 0,177 mm 1,0 UV-I 329 W/m 9,0 C 11,4 C 6,4 km/h (2 Bft) 100,00 %
28.10.2015 14:05 11,4 C 86 % 1011,9 hPa 0,0 l/m 2,4 km/h (1 Bft) O-SO 116 5 min 0,000 mm 0,9 UV-I 326 W/m 9,1 C 11,4 C 4,8 km/h (1 Bft) 100,00 %
28.10.2015 14:10 11,7 C 85 % 1011,8 hPa 0,0 l/m 1,1 km/h (1 Bft) O-SO 113 5 min 0,000 mm 0,9 UV-I 313 W/m 9,3 C 11,7 C 4,8 km/h (1 Bft) 99,19 %
28.10.2015 14:15 11,8 C 85 % 1011,7 hPa 0,0 l/m 0,9 km/h (0 Bft) O-SO 113 5 min 0,000 mm 0,9 UV-I 310 W/m 9,4 C 11,8 C 3,2 km/h (1 Bft) 99,19 %
28.10.2015 14:20 12,3 C 85 % 1011,7 hPa 0,0 l/m 1,8 km/h (1 Bft) SO 125 5 min 0,000 mm 0,8 UV-I 303 W/m 9,9 C 12,3 C 4,8 km/h (1 Bft) 98,20 %
28.10.2015 14:25 12,3 C 83 % 1011,7 hPa 0,0 l/m 2,4 km/h (1 Bft) O-SO 119 5 min 0,000 mm 0,8 UV-I 299 W/m 9,5 C 12,3 C 4,8 km/h (1 Bft) 100,00 %
28.10.2015 14:30 12,8 C 81 % 1011,7 hPa 0,0 l/m 1,7 km/h (1 Bft) O 83 5 min 0,000 mm 0,7 UV-I 261 W/m 9,6 C 12,8 C 4,8 km/h (1 Bft) 98,35 %
28.10.2015 14:35 13,1 C 79 % 1011,6 hPa 0,0 l/m 5,5 km/h (1 Bft) SO 134 0 min 0,000 mm 0,6 UV-I 201 W/m 9,5 C 13,1 C 12,9 km/h (3 Bft) 100,00 %
28.10.2015 14:40 13,2 C 78 % 1011,5 hPa 0,0 l/m 6,4 km/h (2 Bft) O 86 5 min 0,000 mm 0,6 UV-I 263 W/m 9,4 C 13,2 C 12,9 km/h (3 Bft) 100,00 %
28.10.2015 14:45 13,2 C 78 % 1011,4 hPa 0,0 l/m 6,2 km/h (2 Bft) NO 51 0 min 0,000 mm 0,6 UV-I 215 W/m 9,4 C 13,2 C 12,9 km/h (3 Bft) 100,00 %
28.10.2015 14:50 13,2 C 78 % 1011,4 hPa 0,0 l/m 5,0 km/h (1 Bft) O 88 0 min 0,000 mm 0,5 UV-I 205 W/m 9,4 C 13,2 C 11,3 km/h (2 Bft) 99,11 %
28.10.2015 14:55 13,1 C 77 % 1011,4 hPa 0,0 l/m 6,3 km/h (2 Bft) O 89 0 min 0,000 mm 0,5 UV-I 157 W/m 9,2 C 13,1 C 14,5 km/h (3 Bft) 99,19 %
28.10.2015 15:00 13,1 C 78 % 1011,5 hPa 0,0 l/m 6,5 km/h (2 Bft) O-NO 74 0 min 0,127 mm 0,0 UV-I 176 W/m 9,4 C 13,1 C 12,9 km/h (3 Bft) 99,12 %
28.10.2015 15:05 13,1 C 78 % 1011,3 hPa 0,0 l/m 7,2 km/h (2 Bft) O 80 0 min 0,000 mm 0,0 UV-I 165 W/m 9,4 C 12,6 C 12,9 km/h (3 Bft) 100,00 %
28.10.2015 15:10 13,1 C 78 % 1011,3 hPa 0,0 l/m 5,9 km/h (2 Bft) O 83 0 min 0,000 mm 0,0 UV-I 184 W/m 9,4 C 13,1 C 9,7 km/h (2 Bft) 99,19 %
28.10.2015 15:15 13,1 C 78 % 1011,4 hPa 0,0 l/m 6,4 km/h (2 Bft) NO 51 0 min 0,000 mm 0,0 UV-I 187 W/m 9,4 C 13,1 C 12,9 km/h (3 Bft) 100,00 %
28.10.2015 15:20 13,1 C 79 % 1011,4 hPa 0,0 l/m 5,8 km/h (2 Bft) O-NO 62 0 min 0,000 mm 0,0 UV-I 163 W/m 9,5 C 13,1 C 12,9 km/h (3 Bft) 98,39 %
28.10.2015 15:25 13,1 C 79 % 1011,4 hPa 0,0 l/m 4,8 km/h (1 Bft) O 84 0 min 0,000 mm 0,0 UV-I 167 W/m 9,5 C 13,1 C 9,7 km/h (2 Bft) 99,11 %
28.10.2015 15:30 13,1 C 79 % 1011,4 hPa 0,0 l/m 4,8 km/h (1 Bft) O 84 0 min 0,000 mm 0,0 UV-I 154 W/m 9,5 C 13,1 C 8,0 km/h (2 Bft) 99,12 %
28.10.2015 15:35 13,0 C 80 % 1011,4 hPa 0,0 l/m 4,2 km/h (1 Bft) O 89 0 min 0,000 mm 0,0 UV-I 138 W/m 9,6 C 13,0 C 12,9 km/h (3 Bft) 99,21 %
28.10.2015 15:40 12,8 C 81 % 1011,5 hPa 0,0 l/m 7,3 km/h (2 Bft) O-NO 65 0 min 0,000 mm 0,0 UV-I 119 W/m 9,6 C 12,2 C 12,9 km/h (3 Bft) 100,00 %
28.10.2015 15:45 12,7 C 81 % 1011,5 hPa 0,0 l/m 6,6 km/h (2 Bft) O 92 0 min 0,000 mm 0,0 UV-I 107 W/m 9,5 C 12,6 C 11,3 km/h (2 Bft) 100,00 %
28.10.2015 15:50 12,7 C 81 % 1011,5 hPa 0,0 l/m 7,9 km/h (2 Bft) O-NO 73 0 min 0,000 mm 0,0 UV-I 90 W/m 9,5 C 11,7 C 12,9 km/h (3 Bft) 99,11 %
28.10.2015 15:55 12,5 C 81 % 1011,4 hPa 0,0 l/m 7,2 km/h (2 Bft) O 86 0 min 0,000 mm 0,0 UV-I 82 W/m 9,3 C 12,0 C 11,3 km/h (2 Bft) 97,37 %
28.10.2015 16:00 12,4 C 82 % 1011,4 hPa 0,0 l/m 6,3 km/h (2 Bft) O-NO 64 0 min 0,077 mm 0,0 UV-I 72 W/m 9,4 C 12,4 C 12,9 km/h (3 Bft) 99,21 %
28.10.2015 16:05 12,2 C 83 % 1011,4 hPa 0,0 l/m 4,1 km/h (1 Bft) O 82 0 min 0,000 mm 0,0 UV-I 54 W/m 9,4 C 12,2 C 11,3 km/h (2 Bft) 99,13 %
28.10.2015 16:10 12,1 C 83 % 1011,6 hPa 0,0 l/m 3,3 km/h (1 Bft) O-NO 77 0 min 0,000 mm 0,0 UV-I 34 W/m 9,3 C 12,1 C 8,0 km/h (2 Bft) 100,00 %
28.10.2015 16:15 11,8 C 84 % 1011,6 hPa 0,0 l/m 0,8 km/h (0 Bft) O 79 0 min 0,000 mm 0,0 UV-I 24 W/m 9,2 C 11,8 C 1,6 km/h (1 Bft) 100,00 %
28.10.2015 16:20 11,6 C 85 % 1011,5 hPa 0,0 l/m 1,6 km/h (1 Bft) O-NO 72 0 min 0,000 mm 0,0 UV-I 20 W/m 9,2 C 11,6 C 3,2 km/h (1 Bft) 100,00 %
28.10.2015 16:25 11,4 C 85 % 1011,5 hPa 0,0 l/m 1,7 km/h (1 Bft) O-NO 78 0 min 0,000 mm 0,0 UV-I 17 W/m 9,0 C 11,4 C 4,8 km/h (1 Bft) 100,00 %
28.10.2015 16:30 11,3 C 85 % 1011,5 hPa 0,0 l/m 2,8 km/h (1 Bft) O 85 0 min 0,000 mm 0,0 UV-I 13 W/m 8,9 C 11,3 C 4,8 km/h (1 Bft) 100,00 %
28.10.2015 16:35 11,3 C 85 % 1011,4 hPa 0,0 l/m 4,3 km/h (1 Bft) O-NO 71 0 min 0,000 mm 0,0 UV-I 11 W/m 8,9 C 11,3 C 11,3 km/h (2 Bft) 100,00 %
28.10.2015 16:40 11,1 C 86 % 1011,5 hPa 0,0 l/m 1,9 km/h (1 Bft) O-NO 71 0 min 0,000 mm 0,0 UV-I 8 W/m 8,8 C 11,1 C 4,8 km/h (1 Bft) 100,00 %
28.10.2015 16:45 10,9 C 87 % 1011,5 hPa 0,0 l/m 0,6 km/h (0 Bft) O 80 0 min 0,000 mm 0,0 UV-I 6 W/m 8,8 C 10,9 C 3,2 km/h (1 Bft) 100,00 %
28.10.2015 16:50 10,8 C 86 % 1011,4 hPa 0,0 l/m 3,8 km/h (1 Bft) O 98 0 min 0,000 mm 0,0 UV-I 5 W/m 8,6 C 10,8 C 8,0 km/h (2 Bft) 99,12 %
28.10.2015 16:55 10,8 C 86 % 1011,5 hPa 0,0 l/m 4,7 km/h (1 Bft) O-SO 112 0 min 0,000 mm 0,0 UV-I 1 W/m 8,6 C 10,8 C 9,7 km/h (2 Bft) 100,00 %
28.10.2015 17:00 10,8 C 86 % 1011,5 hPa 0,0 l/m 3,9 km/h (1 Bft) O 92 0 min 0,025 mm 0,0 UV-I 0 W/m 8,6 C 10,8 C 9,7 km/h (2 Bft) 99,15 %
28.10.2015 17:05 10,8 C 86 % 1011,6 hPa 0,0 l/m 4,7 km/h (1 Bft) O 101 0 min 0,000 mm 0,0 UV-I 0 W/m 8,6 C 10,8 C 12,9 km/h (3 Bft) 99,13 %
28.10.2015 17:10 10,7 C 86 % 1011,7 hPa 0,0 l/m 3,0 km/h (1 Bft) N 355 0 min 0,000 mm 0,0 UV-I 0 W/m 8,5 C 10,7 C 6,4 km/h (2 Bft) 99,11 %
28.10.2015 17:15 10,7 C 86 % 1011,7 hPa 0,0 l/m 3,3 km/h (1 Bft) O-SO 102 0 min 0,000 mm 0,0 UV-I 0 W/m 8,5 C 10,7 C 11,3 km/h (2 Bft) 99,21 %
28.10.2015 17:20 10,6 C 87 % 1011,7 hPa 0,0 l/m 2,7 km/h (1 Bft) O-NO 78 0 min 0,000 mm 0,0 UV-I 0 W/m 8,5 C 10,6 C 4,8 km/h (1 Bft) 100,00 %
28.10.2015 17:25 10,5 C 87 % 1011,6 hPa 0,0 l/m 3,1 km/h (1 Bft) O-NO 73 0 min 0,000 mm 0,0 UV-I 0 W/m 8,4 C 10,5 C 4,8 km/h (1 Bft) 98,46 %
28.10.2015 17:35 10,2 C 88 % 1011,7 hPa 0,0 l/m 3,4 km/h (1 Bft) O 94 0 min 0,000 mm 0,0 UV-I 0 W/m 8,3 C 10,2 C 11,3 km/h (2 Bft) 99,31 %
28.10.2015 17:40 10,2 C 88 % 1011,6 hPa 0,0 l/m 4,7 km/h (1 Bft) O-NO 77 0 min 0,000 mm 0,0 UV-I 0 W/m 8,3 C 10,2 C 9,7 km/h (2 Bft) 98,21 %
28.10.2015 17:45 10,2 C 88 % 1011,6 hPa 0,0 l/m 6,1 km/h (2 Bft) O 84 0 min 0,000 mm 0,0 UV-I 0 W/m 8,3 C 10,2 C 12,9 km/h (3 Bft) 99,21 %
28.10.2015 17:50 10,3 C 87 % 1011,6 hPa 0,0 l/m 7,4 km/h (2 Bft) O 81 0 min 0,000 mm 0,0 UV-I 0 W/m 8,2 C 9,6 C 14,5 km/h (3 Bft) 97,32 %
28.10.2015 17:55 10,3 C 87 % 1011,6 hPa 0,0 l/m 4,9 km/h (1 Bft) O 87 0 min 0,000 mm 0,0 UV-I 0 W/m 8,2 C 10,3 C 12,9 km/h (3 Bft) 100,00 %
28.10.2015 18:00 10,2 C 87 % 1011,6 hPa 0,0 l/m 5,7 km/h (1 Bft) O 84 0 min 0,000 mm 0,0 UV-I 0 W/m 8,1 C 10,2 C 14,5 km/h (3 Bft) 99,21 %
28.10.2015 18:05 10,2 C 87 % 1011,6 hPa 0,0 l/m 5,5 km/h (1 Bft) O-SO 109 0 min 0,000 mm 0,0 UV-I 0 W/m 8,1 C 10,2 C 12,9 km/h (3 Bft) 100,00 %
28.10.2015 18:10 10,2 C 87 % 1011,6 hPa 0,0 l/m 7,8 km/h (2 Bft) O-SO 107 0 min 0,000 mm 0,0 UV-I 0 W/m 8,1 C 9,2 C 17,7 km/h (3 Bft) 100,00 %
28.10.2015 18:15 10,1 C 87 % 1011,6 hPa 0,0 l/m 6,9 km/h (2 Bft) SO 127 0 min 0,000 mm 0,0 UV-I 0 W/m 8,0 C 9,7 C 14,5 km/h (3 Bft) 97,39 %
28.10.2015 18:20 10,1 C 87 % 1011,7 hPa 0,0 l/m 9,1 km/h (2 Bft) O 98 0 min 0,000 mm 0,0 UV-I 0 W/m 8,0 C 8,2 C 20,9 km/h (4 Bft) 99,11 %
28.10.2015 18:25 10,1 C 87 % 1011,7 hPa 0,0 l/m 7,6 km/h (2 Bft) O-SO 120 0 min 0,000 mm 0,0 UV-I 0 W/m 8,0 C 9,2 C 16,1 km/h (3 Bft) 100,00 %
28.10.2015 18:30 10,1 C 87 % 1011,7 hPa 0,0 l/m 8,3 km/h (2 Bft) O-SO 111 0 min 0,000 mm 0,0 UV-I 0 W/m 8,0 C 8,8 C 16,1 km/h (3 Bft) 99,13 %
28.10.2015 18:35 10,0 C 87 % 1011,6 hPa 0,0 l/m 7,8 km/h (2 Bft) O-SO 116 0 min 0,000 mm 0,0 UV-I 0 W/m 7,9 C 9,0 C 17,7 km/h (3 Bft) 100,00 %
28.10.2015 18:40 9,9 C 87 % 1011,7 hPa 0,0 l/m 6,3 km/h (2 Bft) O-SO 121 0 min 0,000 mm 0,0 UV-I 0 W/m 7,8 C 9,9 C 14,5 km/h (3 Bft) 100,00 %
28.10.2015 18:45 9,9 C 87 % 1011,6 hPa 0,0 l/m 8,8 km/h (2 Bft) O 87 0 min 0,000 mm 0,0 UV-I 0 W/m 7,8 C 8,2 C 17,7 km/h (3 Bft) 100,00 %
28.10.2015 18:50 9,8 C 87 % 1011,6 hPa 0,0 l/m 9,5 km/h (2 Bft) O-NO 69 0 min 0,000 mm 0,0 UV-I 0 W/m 7,7 C 7,7 C 19,3 km/h (3 Bft) 100,00 %
28.10.2015 18:55 9,8 C 86 % 1011,7 hPa 0,0 l/m 8,3 km/h (2 Bft) O-SO 113 0 min 0,000 mm 0,0 UV-I 0 W/m 7,6 C 8,4 C 14,5 km/h (3 Bft) 100,00 %
28.10.2015 19:00 9,7 C 87 % 1011,8 hPa 0,0 l/m 8,8 km/h (2 Bft) O-NO 73 0 min 0,000 mm 0,0 UV-I 0 W/m 7,6 C 8,0 C 20,9 km/h (4 Bft) 100,00 %
28.10.2015 19:05 9,7 C 87 % 1011,8 hPa 0,0 l/m 12,0 km/h (2 Bft) O 97 0 min 0,025 mm 0,0 UV-I 0 W/m 7,6 C 6,2 C 20,9 km/h (4 Bft) 99,17 %
28.10.2015 19:10 9,6 C 87 % 1011,8 hPa 0,0 l/m 9,8 km/h (2 Bft) O-NO 63 0 min 0,000 mm 0,0 UV-I 0 W/m 7,5 C 7,3 C 16,1 km/h (3 Bft) 97,25 %
28.10.2015 19:15 9,6 C 87 % 1011,6 hPa 0,0 l/m 10,8 km/h (2 Bft) SO 131 0 min 0,000 mm 0,0 UV-I 0 W/m 7,5 C 6,7 C 17,7 km/h (3 Bft) 99,13 %
28.10.2015 19:20 9,5 C 87 % 1011,6 hPa 0,0 l/m 12,1 km/h (2 Bft) O-NO 78 0 min 0,000 mm 0,0 UV-I 0 W/m 7,4 C 5,9 C 20,9 km/h (4 Bft) 99,22 %
28.10.2015 19:25 9,4 C 87 % 1011,5 hPa 0,0 l/m 13,0 km/h (3 Bft) NO 47 0 min 0,000 mm 0,0 UV-I 0 W/m 7,3 C 5,3 C 19,3 km/h (3 Bft) 100,00 %
28.10.2015 19:30 9,4 C 88 % 1011,5 hPa 0,0 l/m 13,9 km/h (3 Bft) NO 55 0 min 0,000 mm 0,0 UV-I 0 W/m 7,5 C 4,9 C 20,9 km/h (4 Bft) 96,03 %
28.10.2015 19:35 9,3 C 88 % 1011,3 hPa 0,0 l/m 14,5 km/h (3 Bft) O-SO 115 0 min 0,000 mm 0,0 UV-I 0 W/m 7,4 C 4,5 C 22,5 km/h (4 Bft) 99,17 %
28.10.2015 19:40 9,3 C 88 % 1011,3 hPa 0,0 l/m 17,0 km/h (3 Bft) O-NO 78 0 min 0,000 mm 0,0 UV-I 0 W/m 7,4 C 3,5 C 27,4 km/h (4 Bft) 96,43 %
28.10.2015 19:45 9,2 C 88 % 1011,3 hPa 0,0 l/m 16,1 km/h (3 Bft) O-NO 77 0 min 0,000 mm 0,0 UV-I 0 W/m 7,3 C 3,7 C 24,1 km/h (4 Bft) 99,12 %
28.10.2015 19:50 9,1 C 88 % 1011,4 hPa 0,0 l/m 11,6 km/h (2 Bft) O-NO 63 0 min 0,000 mm 0,0 UV-I 0 W/m 7,2 C 5,7 C 19,3 km/h (3 Bft) 100,00 %
28.10.2015 19:55 9,1 C 88 % 1011,4 hPa 0,0 l/m 10,1 km/h (2 Bft) SO 125 0 min 0,000 mm 0,0 UV-I 0 W/m 7,2 C 6,5 C 20,9 km/h (4 Bft) 99,08 %
28.10.2015 20:00 8,9 C 89 % 1011,5 hPa 0,0 l/m 8,2 km/h (2 Bft) O 96 0 min 0,000 mm 0,0 UV-I 0 W/m 7,2 C 7,6 C 17,7 km/h (3 Bft) 99,21 %
28.10.2015 20:05 8,9 C 89 % 1011,5 hPa 0,0 l/m 10,4 km/h (2 Bft) O 89 0 min 0,025 mm 0,0 UV-I 0 W/m 7,2 C 6,1 C 24,1 km/h (4 Bft) 100,00 %
28.10.2015 20:10 8,9 C 89 % 1011,4 hPa 0,0 l/m 11,7 km/h (2 Bft) O 82 0 min 0,001 mm 0,0 UV-I 0 W/m 7,2 C 5,4 C 20,9 km/h (4 Bft) 97,50 %
28.10.2015 20:15 8,8 C 89 % 1011,3 hPa 0,0 l/m 12,3 km/h (3 Bft) O 90 0 min 0,000 mm 0,0 UV-I 0 W/m 7,1 C 5,0 C 19,3 km/h (3 Bft) 100,00 %
28.10.2015 20:20 8,7 C 89 % 1011,5 hPa 0,0 l/m 8,0 km/h (2 Bft) O-NO 67 0 min 0,000 mm 0,0 UV-I 0 W/m 7,0 C 7,5 C 14,5 km/h (3 Bft) 100,00 %
28.10.2015 20:25 8,7 C 90 % 1011,6 hPa 0,0 l/m 5,6 km/h (1 Bft) O-SO 104 0 min 0,000 mm 0,0 UV-I 0 W/m 7,2 C 8,7 C 12,9 km/h (3 Bft) 99,12 %
28.10.2015 20:30 8,6 C 90 % 1011,8 hPa 0,0 l/m 4,6 km/h (1 Bft) O 92 0 min 0,000 mm 0,0 UV-I 0 W/m 7,1 C 8,6 C 9,7 km/h (2 Bft) 100,00 %
28.10.2015 20:35 8,5 C 90 % 1011,8 hPa 0,0 l/m 5,9 km/h (2 Bft) O-NO 65 0 min 0,000 mm 0,0 UV-I 0 W/m 7,0 C 8,5 C 12,9 km/h (3 Bft) 98,26 %
28.10.2015 20:40 8,4 C 91 % 1011,7 hPa 0,0 l/m 7,0 km/h (2 Bft) N-NO 28 0 min 0,000 mm 0,0 UV-I 0 W/m 7,0 C 7,9 C 14,5 km/h (3 Bft) 99,17 %
28.10.2015 20:45 8,4 C 91 % 1011,5 hPa 0,0 l/m 12,0 km/h (2 Bft) O-SO 109 0 min 0,000 mm 0,0 UV-I 0 W/m 7,0 C 4,7 C 20,9 km/h (4 Bft) 99,13 %
28.10.2015 20:50 8,3 C 91 % 1011,6 hPa 0,0 l/m 12,0 km/h (2 Bft) O-NO 63 0 min 0,000 mm 0,0 UV-I 0 W/m 6,9 C 4,6 C 22,5 km/h (4 Bft) 99,13 %
28.10.2015 20:55 8,3 C 91 % 1011,6 hPa 0,0 l/m 11,3 km/h (2 Bft) O 90 0 min 0,000 mm 0,0 UV-I 0 W/m 6,9 C 4,9 C 20,9 km/h (4 Bft) 100,00 %
28.10.2015 21:00 8,3 C 91 % 1011,5 hPa 0,0 l/m 10,8 km/h (2 Bft) O 79 0 min 0,000 mm 0,0 UV-I 0 W/m 6,9 C 5,2 C 16,1 km/h (3 Bft) 99,58 %
28.10.2015 21:05 8,2 C 91 % 1011,7 hPa 0,0 l/m 10,2 km/h (2 Bft) O-NO 68 0 min 0,000 mm 0,0 UV-I 0 W/m 6,8 C 5,5 C 19,3 km/h (3 Bft) 99,11 %
28.10.2015 21:10 8,1 C 91 % 1011,7 hPa 0,0 l/m 7,9 km/h (2 Bft) O 84 0 min 0,000 mm 0,0 UV-I 0 W/m 6,7 C 6,9 C 14,5 km/h (3 Bft) 100,00 %
28.10.2015 21:15 8,1 C 92 % 1011,8 hPa 0,0 l/m 7,9 km/h (2 Bft) O 90 0 min 0,000 mm 0,0 UV-I 0 W/m 6,9 C 6,9 C 14,5 km/h (3 Bft) 99,13 %
28.10.2015 21:20 7,9 C 92 % 1011,8 hPa 0,0 l/m 4,9 km/h (1 Bft) O 86 0 min 0,000 mm 0,0 UV-I 0 W/m 6,7 C 7,9 C 12,9 km/h (3 Bft) 99,08 %
28.10.2015 21:25 7,8 C 92 % 1011,9 hPa 0,0 l/m 4,7 km/h (1 Bft) O-NO 78 0 min 0,000 mm 0,0 UV-I 0 W/m 6,6 C 7,8 C 8,0 km/h (2 Bft) 97,62 %
28.10.2015 21:30 7,7 C 93 % 1012,0 hPa 0,0 l/m 2,9 km/h (1 Bft) NO 38 0 min 0,000 mm 0,0 UV-I 0 W/m 6,6 C 7,7 C 6,4 km/h (2 Bft) 100,00 %
28.10.2015 21:35 7,7 C 93 % 1012,0 hPa 0,0 l/m 5,4 km/h (1 Bft) O 94 0 min 0,000 mm 0,0 UV-I 0 W/m 6,6 C 7,7 C 11,3 km/h (2 Bft) 96,83 %
28.10.2015 21:40 7,7 C 93 % 1011,9 hPa 0,0 l/m 9,0 km/h (2 Bft) NO 46 0 min 0,000 mm 0,0 UV-I 0 W/m 6,6 C 5,7 C 19,3 km/h (3 Bft) 98,26 %
28.10.2015 21:45 7,7 C 93 % 1011,9 hPa 0,0 l/m 9,8 km/h (2 Bft) O-NO 76 0 min 0,000 mm 0,0 UV-I 0 W/m 6,6 C 5,2 C 17,7 km/h (3 Bft) 96,43 %
28.10.2015 21:50 7,7 C 93 % 1011,9 hPa 0,0 l/m 8,1 km/h (2 Bft) O-NO 59 0 min 0,000 mm 0,0 UV-I 0 W/m 6,6 C 6,4 C 14,5 km/h (3 Bft) 99,12 %
28.10.2015 21:55 7,7 C 93 % 1011,9 hPa 0,0 l/m 9,0 km/h (2 Bft) O-NO 67 0 min 0,000 mm 0,0 UV-I 0 W/m 6,6 C 5,7 C 16,1 km/h (3 Bft) 98,39 %
28.10.2015 22:00 7,7 C 93 % 1011,9 hPa 0,0 l/m 5,3 km/h (1 Bft) O-NO 72 0 min 0,000 mm 0,0 UV-I 0 W/m 6,6 C 7,7 C 12,9 km/h (3 Bft) 99,15 %
28.10.2015 22:05 7,7 C 94 % 1011,8 hPa 0,0 l/m 8,4 km/h (2 Bft) O-NO 78 0 min 0,000 mm 0,0 UV-I 0 W/m 6,8 C 6,1 C 16,1 km/h (3 Bft) 98,35 %
28.10.2015 22:10 7,7 C 94 % 1011,8 hPa 0,0 l/m 9,9 km/h (2 Bft) O 91 0 min 0,000 mm 0,0 UV-I 0 W/m 6,8 C 5,1 C 16,1 km/h (3 Bft) 100,00 %
28.10.2015 22:15 7,7 C 94 % 1011,8 hPa 0,0 l/m 9,1 km/h (2 Bft) O-NO 78 0 min 0,000 mm 0,0 UV-I 0 W/m 6,8 C 5,6 C 14,5 km/h (3 Bft) 100,00 %
28.10.2015 22:20 7,7 C 94 % 1011,8 hPa 0,0 l/m 9,1 km/h (2 Bft) O 100 0 min 0,000 mm 0,0 UV-I 0 W/m 6,8 C 5,6 C 16,1 km/h (3 Bft) 100,00 %
28.10.2015 22:25 7,7 C 94 % 1011,9 hPa 0,0 l/m 8,8 km/h (2 Bft) O 86 0 min 0,000 mm 0,0 UV-I 0 W/m 6,8 C 5,9 C 14,5 km/h (3 Bft) 100,00 %
28.10.2015 22:30 7,8 C 94 % 1012,1 hPa 0,0 l/m 3,7 km/h (1 Bft) O 98 0 min 0,000 mm 0,0 UV-I 0 W/m 6,9 C 7,8 C 11,3 km/h (2 Bft) 99,21 %
28.10.2015 22:35 7,9 C 94 % 1012,0 hPa 0,0 l/m 5,5 km/h (1 Bft) O 80 0 min 0,000 mm 0,0 UV-I 0 W/m 7,0 C 7,9 C 11,3 km/h (2 Bft) 100,00 %
28.10.2015 22:40 7,9 C 93 % 1012,0 hPa 0,0 l/m 8,2 km/h (2 Bft) O 84 0 min 0,000 mm 0,0 UV-I 0 W/m 6,8 C 6,5 C 14,5 km/h (3 Bft) 98,00 %
28.10.2015 22:45 8,0 C 94 % 1012,0 hPa 0,0 l/m 7,7 km/h (2 Bft) O 79 0 min 0,000 mm 0,0 UV-I 0 W/m 7,1 C 7,0 C 16,1 km/h (3 Bft) 98,45 %
28.10.2015 22:50 8,0 C 93 % 1012,0 hPa 0,0 l/m 9,6 km/h (2 Bft) O 86 0 min 0,000 mm 0,0 UV-I 0 W/m 6,9 C 5,6 C 14,5 km/h (3 Bft) 99,13 %
28.10.2015 22:55 8,1 C 93 % 1012,1 hPa 0,0 l/m 8,9 km/h (2 Bft) O-SO 102 0 min 0,000 mm 0,0 UV-I 0 W/m 7,0 C 6,2 C 14,5 km/h (3 Bft) 100,00 %
28.10.2015 23:00 8,1 C 93 % 1012,1 hPa 0,0 l/m 8,8 km/h (2 Bft) O 101 0 min 0,000 mm 0,0 UV-I 0 W/m 7,0 C 6,3 C 14,5 km/h (3 Bft) 98,26 %
28.10.2015 23:05 8,1 C 93 % 1012,1 hPa 0,0 l/m 10,8 km/h (2 Bft) O 81 0 min 0,000 mm 0,0 UV-I 0 W/m 7,0 C 5,0 C 20,9 km/h (4 Bft) 100,00 %
28.10.2015 23:10 8,1 C 93 % 1012,0 hPa 0,0 l/m 9,3 km/h (2 Bft) O-NO 69 0 min 0,000 mm 0,0 UV-I 0 W/m 7,0 C 5,9 C 16,1 km/h (3 Bft) 99,12 %
28.10.2015 23:15 8,1 C 93 % 1012,0 hPa 0,0 l/m 9,8 km/h (2 Bft) O 79 0 min 0,000 mm 0,0 UV-I 0 W/m 7,0 C 5,6 C 17,7 km/h (3 Bft) 99,19 %
28.10.2015 23:20 8,1 C 93 % 1012,1 hPa 0,0 l/m 7,5 km/h (2 Bft) O 80 0 min 0,000 mm 0,0 UV-I 0 W/m 7,0 C 7,2 C 12,9 km/h (3 Bft) 98,29 %
28.10.2015 23:25 8,1 C 93 % 1012,2 hPa 0,0 l/m 4,6 km/h (1 Bft) SO 130 0 min 0,000 mm 0,0 UV-I 0 W/m 7,0 C 8,1 C 9,7 km/h (2 Bft) 99,15 %
28.10.2015 23:30 8,1 C 93 % 1012,0 hPa 0,0 l/m 5,8 km/h (2 Bft) O-NO 72 0 min 0,000 mm 0,0 UV-I 0 W/m 7,0 C 8,1 C 11,3 km/h (2 Bft) 99,13 %
28.10.2015 23:35 8,1 C 94 % 1012,1 hPa 0,0 l/m 5,8 km/h (2 Bft) O 80 0 min 0,000 mm 0,0 UV-I 0 W/m 7,2 C 8,1 C 9,7 km/h (2 Bft) 100,00 %
28.10.2015 23:40 8,0 C 94 % 1012,1 hPa 0,0 l/m 6,2 km/h (2 Bft) O-NO 72 0 min 0,000 mm 0,0 UV-I 0 W/m 7,1 C 8,0 C 12,9 km/h (3 Bft) 99,19 %
28.10.2015 23:45 8,1 C 93 % 1012,2 hPa 0,0 l/m 9,3 km/h (2 Bft) NO 53 0 min 0,000 mm 0,0 UV-I 0 W/m 7,0 C 5,9 C 16,1 km/h (3 Bft) 100,00 %
28.10.2015 23:50 8,0 C 94 % 1012,2 hPa 0,0 l/m 5,7 km/h (1 Bft) O-NO 71 0 min 0,000 mm 0,0 UV-I 0 W/m 7,1 C 8,0 C 12,9 km/h (3 Bft) 100,00 %
28.10.2015 23:55 8,0 C 93 % 1012,1 hPa 0,0 l/m 7,5 km/h (2 Bft) O 83 0 min 0,000 mm 0,0 UV-I 0 W/m 6,9 C 7,1 C 14,5 km/h (3 Bft) 100,00 %
_ Min-Zeit 05:10 14:55 15:05 - 00:05 - - - - - - 05:10 05:10 00:45 19:30
Minimum _ 2,9 C 77 % 1011,3 hPa - 0,0 km/h (0 Bft) - - - - - - 2,5 C 2,9 C 0,0 km/h (0 Bft) 96,03 %
_ Max-Zeit 14:45 01:40 00:00 00:00 19:40 - - 07:55 14:00 12:15 12:15 14:20 14:40 19:40 00:10
Maximum _ 13,3 C 98 % 1015,6 hPa 0,0 l/m 17,0 km/h
O-NO (3 Bft)
- - 5 min 0,177 mm 1,6 UV-I 438 W/m 9,9 C 13,2 C 27,4 km/h
O-NO (4 Bft)
100,00 %
Durchschnitt _ 7,6 C 92 % 1013,1 hPa #0,0 l/m 4,8 km/h (1 Bft) O - #3:00 h #0,813 mm 1,0 UV-I 160 W/m 6,4 C 7,1 C 10,0 km/h (2 Bft) 99,24 %